COSMOS 2491 DEB, 47111

Orbit data source: Space-Track

COSMOS 2491 DEB, 47111 is space debris in LEO originally from a launch on Wed, 25 Dec 2013 UTC launched from the Plesetsk Missile And Space Complex (PKMTR). Debris objects in space refer to the collection of defunct objects orbiting the Earth. Examples of debris include non-operational satellites, rocket bodies, and fragments generated from explosions, collisions, or faulty payload assembly.

Loading next visibility...
Identifier
47111, 2013-076AG
Orbit
LEO
Country
Flag of CISCIS
Related business
Manufacturer
TsNIIKhM
Mission
Spacecraft
Bus & Motor
Unknown
Mass
Unknown
Launch date (UTC)
2013-12-25 (12 years ago)
Launch vehicle
Unknown
Launch site
Plesetsk Missile And Space Complex (PKMTR)
Object type
Payload
Rocket body
Debris
Shape & HBR
Unknown
Radar Cross Section
Small (<0.1 m²)

Expand to show TLE details & history
Last TLE update: 1 day ago

TLE from 1 day ago
0 COSMOS 2491 DEB
1 47111U 13076AG  25241.95699595  .00001146  00000-0  65392-2 0  9991
2 47111  82.4344 328.0333 0134415 155.5089 205.2464 12.57520432102629
Epoch: 2025-08-29T22:58Z
TLE epoch observation values (Epoch: 2025-08-29T22:58:04.45Z)
Latitude
-0.00003°
Longitude
5.11656°
Altitude
1,531.152 km
Speed
7.057 km/s
True Right ascension
21h 52m 07s
True Declination
0° 00' 00"
Sunlit
Object was in full shadow at epoch
Visualization orbit readout
Latitude
Unknown
Longitude
Unknown
Altitude
Unknown
Speed
Unknown
Apparent Right ascension
Unknown
Apparent Declination
Unknown
Sunlit
N/A
Visualization observer readout
Local Sidereal Time
16:12:31
Azimuth
Unknown
Elevation
Unknown
Doppler factor
Unknown
Orbital elements
Apogee altitude
1,535.488 km
Perigee altitude
1,325.568 km
Semi-major axis
7,808.665 km
Eccentricity
0.01344
Inclination
82.4344°
RAAN
328.0333°
Arg. of periapsis
155.5089°
True anomaly
204.5993°
Mean anomaly
205.2464°
Eccentric anomaly
204.92188°
Mean motion
3.14542 °/min
Orbital period
114.45 mins
BSTAR
0.0065392
Loading maneuver chart data...
Computing Atmospheric mass density...
Loading historical data...
Loading historical data...
Loading historical data...
Loading historical data...
Loading historical data...
Loading historical data...
Loading historical data...

Documentation

Showing up to 5 results
|